Regional Weather Roundup
Issued by NWS

Home | Current Version | Previous Version | Text Only | Print | Product List | Glossary Off
Versions: 1 2 3 4 5 6 7 8 9 10 11 12 13 14 15 16 17 18 19 20 21 22 23 24 25 26 27 28 29 30 31 32 33 34 35 36 37 38 39 40 41 42 43 44 45 46 47 48 49

000
ASUS45 KBOU 191510
RWRCO

WEATHER ROUNDUP FOR COLORADO
NATIONAL WEATHER SERVICE PUEBLO CO
900 AM MDT THU APR 19 2018

NOTE: "FAIR" INDICATES FEW OR NO CLOUDS BELOW 12000 FEET WITH NO
SIGNIFICANT WEATHER AND/OR OBSTRUCTIONS TO VISIBILITY.

COZ001>005-013-030-031-191600-
...NORTHWEST COLORADO...

CITY           SKY/WX    TMP DP  RH WIND       PRES   REMARKS
CRAIG          PTSUNNY   45  19  35 E16G23    30.05F
HAYDEN         PTSUNNY   41  19  41 E10       30.09F
MEEKER         CLOUDY    33  23  66 CALM      30.05F
RABBIT EARS PA NOT AVBL
STEAMBOAT SPGS FAIR      35  19  52 CALM      30.10F
WALDEN         FAIR      32  10  40 CALM      30.17F
$$

COZ006>008-011-191600-
...WEST CENTRAL VALLEYS...

CITY           SKY/WX    TMP DP  RH WIND       PRES   REMARKS
GRAND JUNCTION PTSUNNY   48  14  25 SE16      29.99F
MONTROSE       PTSUNNY   46  13  26 CALM      30.06F
EAGLE          PTSUNNY   35  18  49 CALM      30.18F
RIFLE          CLOUDY    39  23  52 CALM      30.06F
DELTA          NOT AVBL
NUCLA          FAIR      41   7  24 NW5       30.07F
$$

COZ017>023-064>068-191600-
...SOUTHWEST COLORADO...

CITY           SKY/WX    TMP DP  RH WIND       PRES   REMARKS
DURANGO        MOSUNNY   47  13  25 E9        30.18F
CORTEZ         PTSUNNY   56   5  13 SE26G37   30.08F
PAGOSA SPRINGS FAIR      46   5  18 S6        30.25S
TELLURIDE      MOSUNNY   48   0  13 SE8       30.18F
WOLF CREEK PAS SUNNY     28   5  37 S22G30    30.35R WCI  15
$$

COZ009-010-012-014-032>034-037-058>063-191600-
...CENTRAL COLORADO...

CITY           SKY/WX    TMP DP  RH WIND       PRES   REMARKS
ASPEN          PTSUNNY   51   2  13 SE16G25   30.12F
BUENA VISTA    FAIR      34   1  25 CALM      30.27F
COPPER MTN     NOT AVBL
BERTHOUD PASS  FAIR      27  16  63 S14       30.29S WCI  15
COTTONWOOD PAS MOSUNNY   34   3  27 CALM      30.27F
GUNNISON       MOSUNNY   38  11  32 N9        30.20F
KREMMLING      MOSUNNY   34  19  55 CALM      30.19F
LEADVILLE      MOSUNNY   27   5  39 S5        30.24F WCI  22
MONARCH PASS   SUNNY     32   1  27 S21       30.42R WCI  20
SALIDA         FAIR      35   5  28 CALM      30.35S
SUNLIGHT       PTSUNNY   34   5  29 SE9       30.24F WCI  26
WILKERSON PASS MOSUNNY   30   1  29 SW8       30.32S WCI  23
$$

COZ069>075-191600-
...SAN LUIS VALLEY/SANGRE DE CRISTO MOUNTAINS...

CITY           SKY/WX    TMP DP  RH WIND       PRES   REMARKS
ALAMOSA        SUNNY     46  10  23 S15G21    30.24F
DEL NORTE      FAIR      39   4  23 CALM      30.26F
LA VETA PASS   SUNNY     34   9  35 SW12G22   30.41R WCI  25
SAGUACHE       NOT AVBL
$$

COZ035-036-038>040-191600-
...NORTHERN COLORADO FRONT RANGE...

CITY           SKY/WX    TMP DP  RH WIND       PRES   REMARKS
DENVER INTL AP PTSUNNY   48  16  27 S28G36    30.25F
DMNS CITY PARK NOT AVBL
AURORA         PTSUNNY   46  15  28 S17       30.24F
FRONT RANGE AP NOT AVBL
ERIE MUNI ARPT FAIR      37  19  48 CALM      30.32F
BOULDER MUN AP FAIR      37  21  52 N7        30.26S
CENTENNIAL     MOSUNNY   45  15  30 S18G24    30.24F
BROOMFIELD     PTSUNNY   39  18  41 N5        30.26S
LOVELAND       MOSUNNY   38  19  46 NE6       30.27F
LONGMONT       FAIR      43  20  40 NE7       30.28F
$$

COZ041-046-047-076>085-087-088-191600-
...PIKES PEAK/PALMER DIVIDE AND SOUTHERN FOOTHILLS...

CITY           SKY/WX    TMP DP  RH WIND       PRES   REMARKS
COLO. SPRINGS  MOSUNNY   40  14  34 VRB6      30.30F
A. F. ACADEMY  SUNNY     40  11  30 S8        30.28F
SCHRIEVER AFB  NOT AVBL
CHEYENNE MTN   NOT AVBL
ELLICOTT         N/A    N/A N/A N/A S18G25    30.28S
FALCON         FAIR      41  10  27 S13       30.30F
FORT CARSON    SUNNY     41  12  30 NE3       30.28F
LIMON          SUNNY     43  20  39 SE24G31   30.32F
MONUMENT HILL  SUNNY     37  12  35 S21G28    30.26F
CANON CITY     FAIR      43  14  31 CALM      30.29S
WALSENBURG     FAIR      41  12  30 N3        30.28F
TRINIDAD       SUNNY     51   9  18 NE9       30.27S
$$

COZ042>045-048>051-090-091-191600-
...NORTHEAST COLORADO...

CITY           SKY/WX    TMP DP  RH WIND       PRES   REMARKS
GREELEY ARPT   MOSUNNY   44  20  38 SE12      30.28F
AKRON          MOSUNNY   40  27  59 SE20      30.32S
BURLINGTON     SUNNY     46  29  51 S22G29    30.38R
WRAY           FAIR      46  32  57 MISG      30.38S
YUMA           NOT AVBL
STERLING       NOT AVBL
HOLYOKE        FAIR      46  32  57 SE15      30.38S
FORT MORGAN    FAIR      43  19  39 E6        30.32S
$$

COZ086-089-092>099-191600-
...SOUTHEAST COLORADO...

CITY           SKY/WX    TMP DP  RH WIND       PRES   REMARKS
PUEBLO         SUNNY     40  16  37 CALM      30.29F
LA JUNTA       MOSUNNY   53  15  22 SE24G33   30.30F
LAMAR          SUNNY     50  23  34 SE18G26   30.35S
SPRINGFIELD      N/A     48  22  35 S20G26    30.37R
$$





USA.gov is the U.S. government's official web portal to all federal, state and local government web resources and services.